![]() |
EMODnet Physics ERDDAP
Easier access to scientific data |
log in|
Brought to you by EMODnet Physics |
| Dataset Title: | NDBC - Collection of dew point temperature (DEWT) TimeSeries - IN SITU MultiPointTimeSeriesObservation
|
| Institution: | NDBC (Dataset ID: TS_DEWT_NDBC) |
| Information: | Summary
| License
| FGDC
| ISO 19115
| Metadata
| Background
| Subset
| Data Access Form
| Make a graph
|
| Name | Last modified | Size | Description | |
|---|---|---|---|---|
| Parent Directory | - | - | ||
| TDPC1_TS_DEWT_012016.nc | 27-Oct-2024 23:51 | 437485 | ||
| TDPC1_TS_DEWT_012021.nc | 27-Oct-2024 23:51 | 439234 | ||
| TDPC1_TS_DEWT_012022.nc | 27-Oct-2024 23:51 | 440045 | ||
| TDPC1_TS_DEWT_012023.nc | 27-Oct-2024 23:51 | 440018 | ||
| TDPC1_TS_DEWT_012024.nc | 27-Oct-2024 23:51 | 440106 | ||
| TDPC1_TS_DEWT_022016.nc | 27-Oct-2024 23:51 | 440122 | ||
| TDPC1_TS_DEWT_022021.nc | 27-Oct-2024 23:51 | 440135 | ||
| TDPC1_TS_DEWT_022022.nc | 27-Oct-2024 23:51 | 589497 | ||
| TDPC1_TS_DEWT_022023.nc | 27-Oct-2024 23:51 | 587923 | ||
| TDPC1_TS_DEWT_022024.nc | 16-Sep-2024 16:51 | 437489 | ||
| TDPC1_TS_DEWT_032016.nc | 27-Oct-2024 23:51 | 439648 | ||
| TDPC1_TS_DEWT_032021.nc | 27-Oct-2024 23:51 | 588104 | ||
| TDPC1_TS_DEWT_032022.nc | 27-Oct-2024 23:51 | 588082 | ||
| TDPC1_TS_DEWT_032023.nc | 27-Oct-2024 23:51 | 588050 | ||
| TDPC1_TS_DEWT_042016.nc | 27-Oct-2024 23:51 | 588147 | ||
| TDPC1_TS_DEWT_042021.nc | 27-Oct-2024 23:52 | 588172 | ||
| TDPC1_TS_DEWT_042022.nc | 27-Oct-2024 23:52 | 591018 | ||
| TDPC1_TS_DEWT_042023.nc | 27-Oct-2024 23:52 | 439514 | ||
| TDPC1_TS_DEWT_052016.nc | 27-Oct-2024 23:52 | 439533 | ||
| TDPC1_TS_DEWT_052021.nc | 27-Oct-2024 23:52 | 439688 | ||
| TDPC1_TS_DEWT_052022.nc | 27-Oct-2024 23:52 | 439812 | ||
| TDPC1_TS_DEWT_052023.nc | 27-Oct-2024 23:52 | 440054 | ||
| TDPC1_TS_DEWT_062016.nc | 27-Oct-2024 23:52 | 439116 | ||
| TDPC1_TS_DEWT_062021.nc | 27-Oct-2024 23:52 | 440119 | ||
| TDPC1_TS_DEWT_062022.nc | 27-Oct-2024 23:52 | 440151 | ||
| TDPC1_TS_DEWT_062023.nc | 27-Oct-2024 23:52 | 440078 | ||
| TDPC1_TS_DEWT_072016.nc | 27-Oct-2024 23:52 | 437256 | ||
| TDPC1_TS_DEWT_072021.nc | 27-Oct-2024 23:52 | 587942 | ||
| TDPC1_TS_DEWT_072022.nc | 27-Oct-2024 23:52 | 587967 | ||
| TDPC1_TS_DEWT_072023.nc | 27-Oct-2024 23:52 | 440233 | ||
| TDPC1_TS_DEWT_082016.nc | 27-Oct-2024 23:52 | 588105 | ||
| TDPC1_TS_DEWT_082021.nc | 27-Oct-2024 23:52 | 587876 | ||
| TDPC1_TS_DEWT_082022.nc | 27-Oct-2024 23:52 | 588189 | ||
| TDPC1_TS_DEWT_082023.nc | 27-Oct-2024 23:52 | 588189 | ||
| TDPC1_TS_DEWT_092015.nc | 27-Oct-2024 23:53 | 587964 | ||
| TDPC1_TS_DEWT_092016.nc | 27-Oct-2024 23:53 | 428880 | ||
| TDPC1_TS_DEWT_092021.nc | 27-Oct-2024 23:53 | 587904 | ||
| TDPC1_TS_DEWT_092022.nc | 27-Oct-2024 23:53 | 439931 | ||
| TDPC1_TS_DEWT_102015.nc | 27-Oct-2024 23:53 | 440192 | ||
| TDPC1_TS_DEWT_102016.nc | 27-Oct-2024 23:53 | 589224 | ||
| TDPC1_TS_DEWT_102021.nc | 27-Oct-2024 23:53 | 588033 | ||
| TDPC1_TS_DEWT_102022.nc | 27-Oct-2024 23:53 | 588121 | ||
| TDPC1_TS_DEWT_102023.nc | 27-Oct-2024 23:53 | 588056 | ||
| TDPC1_TS_DEWT_112015.nc | 27-Oct-2024 23:53 | 439044 | ||
| TDPC1_TS_DEWT_112016.nc | 27-Oct-2024 23:53 | 438847 | ||
| TDPC1_TS_DEWT_112021.nc | 27-Oct-2024 23:53 | 438499 | ||
| TDPC1_TS_DEWT_112022.nc | 27-Oct-2024 23:53 | 438228 | ||
| TDPC1_TS_DEWT_112023.nc | 27-Oct-2024 23:53 | 438566 | ||
| TDPC1_TS_DEWT_122015.nc | 27-Oct-2024 23:53 | 439514 | ||
| TDPC1_TS_DEWT_122016.nc | 27-Oct-2024 23:53 | 438711 | ||
| TDPC1_TS_DEWT_122020.nc | 27-Oct-2024 23:53 | 438728 | ||
| TDPC1_TS_DEWT_122021.nc | 27-Oct-2024 23:53 | 438737 | ||
| TDPC1_TS_DEWT_122022.nc | 27-Oct-2024 23:54 | 419639 | ||
| TDPC1_TS_DEWT_122023.nc | 27-Oct-2024 23:54 | 439598 | ||